Location: College Rock
(37.2713°N, 119.1740°W)
Time: 04:22:02
(UTC+00:00)

CZ-4B R/B - Pass Details

Date: 29 October 2020
Orbit: 389 x 462 km, 97.6° (Epoch: 23 November)

Event Time Altitude Azimuth Distance (km) Brightness Sun altitude
Rises 13:36:29 0° 203° (SSW) 2,480 5.0 -9.0°
Reaches altitude 10° 13:39:08 10° 226° (SW) 1,608 3.9 -8.5°
Maximum altitude 13:41:19 16° 265° (W) 1,292 3.1 -8.1°
Drops below altitude 10° 13:43:30 10° 305° (NW) 1,607 3.6 -7.7°
Enters shadow 13:45:14 - 322° (NW) 2,140 4.4 -7.3°
